Voltar ao catálogo

QIANFAN-223

AtivoComunicaçõesPO
NORAD 69852·PAYLOAD·🇨🇳 China

Lançado Jul 5, 2026 de Wenchang Space Launch Site

Loading…

Próximas Passagens (próximas 24 horas)

TLE

AtualizadoSource: Space-Track

Época: Sep 14, 2026, 21:15 UTC

1 69852U 26155E   26257.88555524 -.01827670  00000-0 -32013+1 0  9995
2 69852  89.0078  54.3145 0039891  25.7701 334.5424 13.47195324  9955

Acompanhe QIANFAN-223 em tempo real com AllMySat

Download on the App Store